STARLINK-3270 (50199 NORAD) Tracking and Keplerian Element Data

This shows tracking and keplerian element data for the satellite.

Feedback or suggestion? Click here.




ElementValue
Catalog50199
NameSTARLINK-3270
Epoch Orbit130
Epoch Day140.58334491
Epoch Year2022
RAAN355.057
Inclination53.2154
Eccentricity0.0001922
Argument of Perigee43.7503
Mean Anonmoly197.7512
Mean Motion15.08851476
Decay Rate-4.731E-05
L11 50199U 21125AV 22140.58334491 -.00004731 00000+0 -27925-3 0 9995
L22 50199 53.2154 355.0570 0001922 43.7503 197.7512 15.08851476 1308

Live tracking and technical data element details for STARLINK-3270 (NORAD 50199). STARLINK-3270 can be tracked NOW for your location showing map with azimuth and elevation plus other details from your city location.

Track the satellite on the map from your city or location and see movement details for azimuth, elevation, latitude, longitude, range, height, and movement on the map or in text.







IsCatalogInMostPopularTable: catalog: 50199, numindb: 22
Update: records affected: 1



GetName: 50199 STARLINK-3270

Hit Count: updated at: Sun, 22 May 2022 05:18:43 GMT